INMARSAT 3-F2 1 24307U 96053A 25111.14272414 .00000127 00000-0 00000+0 0 9993 2 24307 8.8987 58.0925 0006437 344.4963 73.5865 0.99987867104732 ARTEMIS 1 26863U 01029A 25110.41523840 .00000070 00000-0 00000-0 0 9990 2 26863 14.5521 9.6450 0012986 165.1536 55.5937 0.99289379 39655 ANIK F1-R 1 28868U 05036A 25111.15391723 -.00000069 00000-0 00000+0 0 9992 2 28868 3.2276 81.8226 0003350 322.2539 113.5220 1.00271799 71927 GALAXY 15 1 28884U 05041A 25110.89343412 -.00000071 00000-0 00000-0 0 9992 2 28884 2.4378 81.7775 0012553 132.2447 336.0669 0.98941669 71261 INMARSAT 4-F2 1 28899U 05044A 25110.77522411 -.00000254 00000-0 00000-0 0 9999 2 28899 4.5520 43.3471 0003054 6.6561 221.6761 1.00270438 71280 HIMAWARI 7 1 28937U 06004A 25110.81067131 -.00000229 00000-0 00000-0 0 9999 2 28937 4.6939 78.1149 0006001 165.7440 219.2322 0.99078407 70042 INMARSAT 4-F3 1 33278U 08039A 25111.22393887 -.00000135 00000-0 00000+0 0 9994 2 33278 3.9460 29.5963 0002878 5.3905 157.1518 1.00273220 61033 QZS-1 (MICHIBIKI) 1 37158U 10045A 25109.05461302 .00000043 00000-0 00000-0 0 9999 2 37158 43.6553 121.0515 0001488 1.5529 170.2661 0.87715495 52679 GSAT 8 1 37605U 11022A 25110.91155980 .00000089 00000-0 00000-0 0 9991 2 37605 1.0367 87.1452 0004811 221.0372 284.2855 1.00273021 48987 LUCH 5A 1 37951U 11074B 25110.77197353 -.00000037 00000-0 00000-0 0 9990 2 37951 7.6762 80.1334 0002308 314.9727 259.0759 1.00276040 48818 SES 5 1 38652U 12036A 25110.89003127 .00000038 00000-0 00000-0 0 9996 2 38652 0.0478 308.2211 0002120 85.5676 140.8211 1.00272222 40249 GSAT 10 1 38779U 12051B 25110.88378083 -.00000161 00000-0 00000-0 0 9996 2 38779 0.0673 262.1696 0007291 181.4244 166.7796 1.00270905 45866 LUCH 5B 1 38977U 12061A 25110.60079160 -.00000127 00000-0 00000-0 0 9993 2 38977 9.5654 53.9274 0000940 152.1088 202.9197 1.00272523 45363 ASTRA 5B 1 39617U 14011B 25110.89430292 .00000141 00000-0 00000-0 0 9995 2 39617 0.0679 309.6227 0002953 60.1535 184.8946 1.00273182 40433 LUCH 5V 1 39727U 14023A 25110.90837755 -.00000261 00000-0 00000-0 0 9991 2 39727 4.0764 73.6972 0002724 336.6430 220.6218 1.00268172 40120 GSAT 15 1 41028U 15065A 25110.90820378 -.00000254 00000-0 00000-0 0 9990 2 41028 0.0530 76.6780 0003507 333.5138 219.5043 1.00272151 34561 QZS-2 1 42738U 17028A 25110.70460034 -.00000184 00000-0 00000-0 0 9999 2 42738 40.0842 249.3132 0740287 270.6934 81.1514 1.00250421 3397